Location: Beekmeers
(50.8953°N, 3.6968°E)
Time: 13:23:56
(UTC+00:00)

SENTINEL 1B - Pass Details

Date: 17 October 2025
Orbit: 561 x 585 km, 98.1° (Epoch: 16 November)

Event Time Altitude Azimuth Distance (km) Brightness Sun altitude
Exits shadow 19:36:17 28° 356° (N) 1,129 6.8 -27.0°
Drops below altitude 10° 19:38:18 10° 350° (N) 1,923 8.2 -27.3°
Sets 19:40:28 0° 348° (NNW) 2,826 9.2 -27.6°
